Year,Month,Day,Hour,Minute,Value (Times are PST for temperature in C)
2016,07,10,00,00,11.10
2016,07,10,00,01,11.10
2016,07,10,00,02,11.00
2016,07,10,00,03,11.10
2016,07,10,00,04,11.00
2016,07,10,00,05,11.00
2016,07,10,00,06,11.00
2016,07,10,00,07,10.90
2016,07,10,00,08,10.90
2016,07,10,00,09,10.90
2016,07,10,00,10,10.90
2016,07,10,00,11,10.90
2016,07,10,00,12,10.90
2016,07,10,00,13,10.90
2016,07,10,00,14,10.90
2016,07,10,00,15,10.90
2016,07,10,00,16,10.90
2016,07,10,00,17,10.80
2016,07,10,00,18,10.80
2016,07,10,00,19,10.80
2016,07,10,00,20,10.80
2016,07,10,00,21,10.80
2016,07,10,00,22,10.80
2016,07,10,00,23,10.80
2016,07,10,00,24,10.80
2016,07,10,00,25,10.80
2016,07,10,00,26,10.80
2016,07,10,00,27,10.80
2016,07,10,00,28,10.80
2016,07,10,00,29,10.80
2016,07,10,00,30,10.80
2016,07,10,00,31,10.80
2016,07,10,00,32,10.70
2016,07,10,00,33,10.70
2016,07,10,00,34,10.70
2016,07,10,00,35,10.70
2016,07,10,00,36,10.70
2016,07,10,00,37,10.70
2016,07,10,00,38,10.70
2016,07,10,00,39,10.70
2016,07,10,00,40,10.70
2016,07,10,00,41,10.70
2016,07,10,00,42,10.70
2016,07,10,00,43,10.70
2016,07,10,00,44,10.70
2016,07,10,00,45,10.70
2016,07,10,00,46,10.70
2016,07,10,00,47,10.70
2016,07,10,00,48,10.70
2016,07,10,00,49,10.70
2016,07,10,00,50,10.70
2016,07,10,00,51,10.70
2016,07,10,00,52,10.70
2016,07,10,00,53,10.70
2016,07,10,00,54,10.60
2016,07,10,00,55,10.60
2016,07,10,00,56,10.60
2016,07,10,00,57,10.60
2016,07,10,00,58,10.60
2016,07,10,00,59,10.60
2016,07,10,01,00,10.60
2016,07,10,01,01,10.60
2016,07,10,01,02,10.60
2016,07,10,01,03,10.60
2016,07,10,01,04,10.60
2016,07,10,01,05,10.60
2016,07,10,01,06,10.60
2016,07,10,01,07,10.60
2016,07,10,01,08,10.60
2016,07,10,01,09,10.50
2016,07,10,01,10,10.50
2016,07,10,01,11,10.50
2016,07,10,01,12,10.50
2016,07,10,01,13,10.50
2016,07,10,01,14,10.50
2016,07,10,01,15,10.40
2016,07,10,01,16,10.40
2016,07,10,01,17,10.40
2016,07,10,01,18,10.40
2016,07,10,01,19,10.40
2016,07,10,01,20,10.40
2016,07,10,01,21,10.40
2016,07,10,01,22,10.40
2016,07,10,01,23,10.40
2016,07,10,01,24,10.40
2016,07,10,01,25,10.40
2016,07,10,01,26,10.40
2016,07,10,01,27,10.40
2016,07,10,01,28,10.30
2016,07,10,01,29,10.30
2016,07,10,01,30,10.30
2016,07,10,01,31,10.30
2016,07,10,01,32,10.30
2016,07,10,01,33,10.30
2016,07,10,01,34,10.30
2016,07,10,01,35,10.30
2016,07,10,01,36,10.30
2016,07,10,01,37,10.30
2016,07,10,01,38,10.30
2016,07,10,01,39,10.30
2016,07,10,01,40,10.20
2016,07,10,01,41,10.20
2016,07,10,01,42,10.20
2016,07,10,01,43,10.20
2016,07,10,01,44,10.20
2016,07,10,01,45,10.20
2016,07,10,01,46,10.20
2016,07,10,01,47,10.10
2016,07,10,01,48,10.10
2016,07,10,01,49,10.10
2016,07,10,01,50,10.10
2016,07,10,01,51,10.10
2016,07,10,01,52,10.10
2016,07,10,01,53,10.10
2016,07,10,01,54,10.10
2016,07,10,01,55,10.10
2016,07,10,01,56,10.10
2016,07,10,01,57,10.10
2016,07,10,01,58,10.10
2016,07,10,01,59,10.10
2016,07,10,02,00,10.10
2016,07,10,02,01,10.10
2016,07,10,02,02,10.00
2016,07,10,02,03,10.00
2016,07,10,02,04,10.00
2016,07,10,02,05,10.00
2016,07,10,02,06,10.00
2016,07,10,02,07,10.00
2016,07,10,02,08,10.00
2016,07,10,02,09,10.00
2016,07,10,02,10,10.00
2016,07,10,02,11,10.00
2016,07,10,02,12,9.90
2016,07,10,02,13,9.90
2016,07,10,02,14,9.90
2016,07,10,02,15,9.90
2016,07,10,02,16,9.90
2016,07,10,02,17,9.90
2016,07,10,02,18,9.90
2016,07,10,02,19,9.90
2016,07,10,02,20,9.90
2016,07,10,02,21,9.90
2016,07,10,02,22,9.90
2016,07,10,02,23,9.90
2016,07,10,02,24,9.90
2016,07,10,02,25,9.80
2016,07,10,02,26,9.80
2016,07,10,02,27,9.80
2016,07,10,02,28,9.80
2016,07,10,02,29,9.80
2016,07,10,02,30,9.80
2016,07,10,02,31,9.90
2016,07,10,02,32,9.90
2016,07,10,02,33,9.90
2016,07,10,02,34,9.90
2016,07,10,02,35,9.90
2016,07,10,02,36,9.90
2016,07,10,02,37,10.00
2016,07,10,02,38,10.00
2016,07,10,02,39,10.00
2016,07,10,02,40,10.00
2016,07,10,02,41,10.00
2016,07,10,02,42,10.00
2016,07,10,02,43,10.00
2016,07,10,02,44,10.00
2016,07,10,02,45,10.00
2016,07,10,02,46,10.00
2016,07,10,02,47,10.00
2016,07,10,02,48,10.10
2016,07,10,02,49,10.10
2016,07,10,02,50,10.10
2016,07,10,02,51,10.10
2016,07,10,02,52,10.10
2016,07,10,02,53,10.10
2016,07,10,02,54,10.10
2016,07,10,02,55,10.10
2016,07,10,02,56,10.00
2016,07,10,02,57,10.00
2016,07,10,02,58,10.00
2016,07,10,02,59,10.00
2016,07,10,03,00,10.00
2016,07,10,03,01,10.00
2016,07,10,03,02,10.00
2016,07,10,03,03,10.00
2016,07,10,03,04,10.00
2016,07,10,03,05,10.00
2016,07,10,03,06,10.00
2016,07,10,03,07,10.00
2016,07,10,03,08,10.00
2016,07,10,03,09,10.00
2016,07,10,03,10,10.00
2016,07,10,03,11,10.00
2016,07,10,03,12,10.00
2016,07,10,03,13,10.00
2016,07,10,03,14,10.00
2016,07,10,03,15,10.00
2016,07,10,03,16,10.00
2016,07,10,03,17,10.10
2016,07,10,03,18,10.10
2016,07,10,03,19,10.10
2016,07,10,03,20,10.10
2016,07,10,03,21,10.10
2016,07,10,03,22,10.10
2016,07,10,03,23,10.10
2016,07,10,03,24,10.10
2016,07,10,03,25,10.10
2016,07,10,03,26,10.10
2016,07,10,03,27,10.10
2016,07,10,03,28,10.10
2016,07,10,03,29,10.10
2016,07,10,03,30,10.10
2016,07,10,03,31,10.10
2016,07,10,03,32,10.10
2016,07,10,03,33,10.10
2016,07,10,03,34,10.10
2016,07,10,03,35,10.10
2016,07,10,03,36,10.20
2016,07,10,03,37,10.20
2016,07,10,03,38,10.20
2016,07,10,03,39,10.20
2016,07,10,03,40,10.20
2016,07,10,03,41,10.20
2016,07,10,03,42,10.20
2016,07,10,03,43,10.20
2016,07,10,03,44,10.20
2016,07,10,03,45,10.20
2016,07,10,03,46,10.20
2016,07,10,03,47,10.20
2016,07,10,03,48,10.20
2016,07,10,03,49,10.20
2016,07,10,03,50,10.20
2016,07,10,03,51,10.20
2016,07,10,03,52,10.20
2016,07,10,03,53,10.20
2016,07,10,03,54,10.20
2016,07,10,03,55,10.20
2016,07,10,03,56,10.20
2016,07,10,03,57,10.20
2016,07,10,03,58,10.20
2016,07,10,03,59,10.20
2016,07,10,04,00,10.20
2016,07,10,04,01,10.20
2016,07,10,04,02,10.20
2016,07,10,04,03,10.20
2016,07,10,04,04,10.30
2016,07,10,04,05,10.30
2016,07,10,04,06,10.30
2016,07,10,04,07,10.30
2016,07,10,04,08,10.30
2016,07,10,04,09,10.30
2016,07,10,04,10,10.30
2016,07,10,04,11,10.30
2016,07,10,04,12,10.30
2016,07,10,04,13,10.30
2016,07,10,04,14,10.30
2016,07,10,04,15,10.30
2016,07,10,04,16,10.30
2016,07,10,04,17,10.30
2016,07,10,04,18,10.30
2016,07,10,04,19,10.30
2016,07,10,04,20,10.30
2016,07,10,04,21,10.30
2016,07,10,04,22,10.30
2016,07,10,04,23,10.30
2016,07,10,04,24,10.30
2016,07,10,04,25,10.30
2016,07,10,04,26,10.30
2016,07,10,04,27,10.30
2016,07,10,04,28,10.30
2016,07,10,04,29,10.30
2016,07,10,04,30,10.30
2016,07,10,04,31,10.30
2016,07,10,04,32,10.30
2016,07,10,04,33,10.30
2016,07,10,04,34,10.30
2016,07,10,04,35,10.30
2016,07,10,04,36,10.30
2016,07,10,04,37,10.30
2016,07,10,04,38,10.30
2016,07,10,04,39,10.30
2016,07,10,04,40,10.30
2016,07,10,04,41,10.30
2016,07,10,04,42,10.30
2016,07,10,04,43,10.30
2016,07,10,04,44,10.30
2016,07,10,04,45,10.30
2016,07,10,04,46,10.30
2016,07,10,04,47,10.30
2016,07,10,04,48,10.30
2016,07,10,04,49,10.30
2016,07,10,04,50,10.30
2016,07,10,04,51,10.30
2016,07,10,04,52,10.30
2016,07,10,04,53,10.30
2016,07,10,04,54,10.30
2016,07,10,04,55,10.40
2016,07,10,04,56,10.40
2016,07,10,04,57,10.40
2016,07,10,04,58,10.40
2016,07,10,04,59,10.40
2016,07,10,05,00,10.40
2016,07,10,05,01,10.40
2016,07,10,05,02,10.40
2016,07,10,05,03,10.40
2016,07,10,05,04,10.40
2016,07,10,05,05,10.40
2016,07,10,05,06,10.40
2016,07,10,05,07,10.40
2016,07,10,05,08,10.40
2016,07,10,05,09,10.40
2016,07,10,05,10,10.40
2016,07,10,05,11,10.40
2016,07,10,05,12,10.40
2016,07,10,05,13,10.30
2016,07,10,05,14,10.30
2016,07,10,05,15,10.30
2016,07,10,05,16,10.30
2016,07,10,05,17,10.30
2016,07,10,05,18,10.30
2016,07,10,05,19,10.30
2016,07,10,05,20,10.30
2016,07,10,05,21,10.30
2016,07,10,05,22,10.20
2016,07,10,05,23,10.20
2016,07,10,05,24,10.20
2016,07,10,05,25,10.20
2016,07,10,05,26,10.20
2016,07,10,05,27,10.20
2016,07,10,05,28,10.20
2016,07,10,05,29,10.20
2016,07,10,05,30,10.20
2016,07,10,05,31,10.20
2016,07,10,05,32,10.20
2016,07,10,05,33,10.20
2016,07,10,05,34,10.20
2016,07,10,05,35,10.20
2016,07,10,05,36,10.20
2016,07,10,05,37,10.20
2016,07,10,05,38,10.20
2016,07,10,05,39,10.20
2016,07,10,05,40,10.20
2016,07,10,05,41,10.20
2016,07,10,05,42,10.20
2016,07,10,05,43,10.30
2016,07,10,05,44,10.30
2016,07,10,05,45,10.30
2016,07,10,05,46,10.30
2016,07,10,05,47,10.30
2016,07,10,05,48,10.40
2016,07,10,05,49,10.40
2016,07,10,05,50,10.40
2016,07,10,05,51,10.40
2016,07,10,05,52,10.40
2016,07,10,05,53,10.40
2016,07,10,05,54,10.40
2016,07,10,05,55,10.40
2016,07,10,05,56,10.40
2016,07,10,05,57,10.40
2016,07,10,05,58,10.40
2016,07,10,05,59,10.40
2016,07,10,06,00,10.40
2016,07,10,06,01,10.40
2016,07,10,06,02,10.40
2016,07,10,06,03,10.40
2016,07,10,06,04,10.40
2016,07,10,06,05,10.50
2016,07,10,06,06,10.40
2016,07,10,06,07,10.40
2016,07,10,06,08,10.50
2016,07,10,06,09,10.50
2016,07,10,06,10,10.50
2016,07,10,06,11,10.50
2016,07,10,06,12,10.50
2016,07,10,06,13,10.50
2016,07,10,06,14,10.50
2016,07,10,06,15,10.50
2016,07,10,06,16,10.50
2016,07,10,06,17,10.50
2016,07,10,06,18,10.60
2016,07,10,06,19,10.60
2016,07,10,06,20,10.60
2016,07,10,06,21,10.60
2016,07,10,06,22,10.60
2016,07,10,06,23,10.60
2016,07,10,06,24,10.60
2016,07,10,06,25,10.60
2016,07,10,06,26,10.60
2016,07,10,06,27,10.60
2016,07,10,06,28,10.60
2016,07,10,06,29,10.70
2016,07,10,06,30,10.70
2016,07,10,06,31,10.70
2016,07,10,06,32,10.70
2016,07,10,06,33,10.70
2016,07,10,06,34,10.70
2016,07,10,06,35,10.70
2016,07,10,06,36,10.70
2016,07,10,06,37,10.70
2016,07,10,06,38,10.80
2016,07,10,06,39,10.80
2016,07,10,06,40,10.80
2016,07,10,06,41,10.80
2016,07,10,06,42,10.80
2016,07,10,06,43,10.80
2016,07,10,06,44,10.80
2016,07,10,06,45,10.80
2016,07,10,06,46,10.80
2016,07,10,06,47,10.80
2016,07,10,06,48,10.80
2016,07,10,06,49,10.80
2016,07,10,06,50,10.90
2016,07,10,06,51,10.90
2016,07,10,06,52,10.90
2016,07,10,06,53,10.90
2016,07,10,06,54,11.00
2016,07,10,06,55,11.00
2016,07,10,06,56,11.00
2016,07,10,06,57,11.10
2016,07,10,06,58,11.10
2016,07,10,06,59,11.10
2016,07,10,07,00,11.10
2016,07,10,07,01,11.10
2016,07,10,07,02,11.10
2016,07,10,07,03,11.20
2016,07,10,07,04,11.20
2016,07,10,07,05,11.20
2016,07,10,07,06,11.30
2016,07,10,07,07,11.30
2016,07,10,07,08,11.30
2016,07,10,07,09,11.40
2016,07,10,07,10,11.40
2016,07,10,07,11,11.40
2016,07,10,07,12,11.50
2016,07,10,07,13,11.50
2016,07,10,07,14,11.60
2016,07,10,07,15,11.60
2016,07,10,07,16,11.70
2016,07,10,07,17,11.70
2016,07,10,07,18,11.70
2016,07,10,07,19,11.80
2016,07,10,07,20,11.80
2016,07,10,07,21,11.80
2016,07,10,07,22,11.80
2016,07,10,07,23,11.80
2016,07,10,07,24,11.80
2016,07,10,07,25,11.80
2016,07,10,07,26,11.80
2016,07,10,07,27,11.80
2016,07,10,07,28,11.80
2016,07,10,07,29,11.80
2016,07,10,07,30,11.80
2016,07,10,07,31,11.80
2016,07,10,07,32,11.80
2016,07,10,07,33,11.80
2016,07,10,07,34,11.80
2016,07,10,07,35,11.80
2016,07,10,07,36,11.80
2016,07,10,07,37,11.80
2016,07,10,07,38,11.90
2016,07,10,07,39,11.90
2016,07,10,07,40,11.90
2016,07,10,07,41,12.00
2016,07,10,07,42,12.00
2016,07,10,07,43,12.10
2016,07,10,07,44,12.10
2016,07,10,07,45,12.20
2016,07,10,07,46,12.20
2016,07,10,07,47,12.20
2016,07,10,07,48,12.20
2016,07,10,07,49,12.30
2016,07,10,07,50,12.30
2016,07,10,07,51,12.30
2016,07,10,07,52,12.30
2016,07,10,07,53,12.30
2016,07,10,07,54,12.30
2016,07,10,07,55,12.30
2016,07,10,07,56,12.30
2016,07,10,07,57,12.30
2016,07,10,07,58,12.30
2016,07,10,07,59,12.40
2016,07,10,08,00,12.40
2016,07,10,08,01,12.40
2016,07,10,08,02,12.50
2016,07,10,08,03,12.60
2016,07,10,08,04,12.70
2016,07,10,08,05,12.80
2016,07,10,08,06,12.80
2016,07,10,08,07,12.90
2016,07,10,08,08,13.00
2016,07,10,08,09,13.10
2016,07,10,08,10,13.10
2016,07,10,08,11,13.10
2016,07,10,08,12,13.20
2016,07,10,08,13,13.20
2016,07,10,08,14,13.20
2016,07,10,08,15,13.10
2016,07,10,08,16,13.10
2016,07,10,08,17,13.10
2016,07,10,08,18,13.10
2016,07,10,08,19,13.10
2016,07,10,08,20,13.10
2016,07,10,08,21,13.20
2016,07,10,08,22,13.20
2016,07,10,08,23,13.20
2016,07,10,08,24,13.30
2016,07,10,08,25,13.40
2016,07,10,08,26,13.40
2016,07,10,08,27,13.40
2016,07,10,08,28,13.50
2016,07,10,08,29,13.60
2016,07,10,08,30,13.60
2016,07,10,08,31,13.70
2016,07,10,08,32,13.70
2016,07,10,08,33,13.70
2016,07,10,08,34,13.60
2016,07,10,08,35,13.60
2016,07,10,08,36,13.60
2016,07,10,08,37,13.60
2016,07,10,08,38,13.70
2016,07,10,08,39,13.70
2016,07,10,08,40,13.80
2016,07,10,08,41,13.90
2016,07,10,08,42,13.90
2016,07,10,08,43,14.00
2016,07,10,08,44,14.10
2016,07,10,08,45,14.20
2016,07,10,08,46,14.20
2016,07,10,08,47,14.20
2016,07,10,08,48,14.30
2016,07,10,08,49,14.40
2016,07,10,08,50,14.40
2016,07,10,08,51,14.40
2016,07,10,08,52,14.40
2016,07,10,08,53,14.50
2016,07,10,08,54,14.50
2016,07,10,08,55,14.60
2016,07,10,08,56,14.60
2016,07,10,08,57,14.70
2016,07,10,08,58,14.70
2016,07,10,08,59,14.80
2016,07,10,09,00,14.80
2016,07,10,09,01,15.00
2016,07,10,09,02,15.00
2016,07,10,09,03,15.00
2016,07,10,09,04,15.00
2016,07,10,09,05,15.20
2016,07,10,09,06,15.20
2016,07,10,09,07,15.20
2016,07,10,09,08,15.30
2016,07,10,09,09,15.40
2016,07,10,09,10,15.40
2016,07,10,09,11,15.50
2016,07,10,09,12,15.60
2016,07,10,09,13,15.60
2016,07,10,09,14,15.70
2016,07,10,09,15,15.70
2016,07,10,09,16,15.80
2016,07,10,09,17,15.80
2016,07,10,09,18,15.90
2016,07,10,09,19,15.90
2016,07,10,09,20,16.00
2016,07,10,09,21,16.00
2016,07,10,09,22,16.00
2016,07,10,09,23,16.00
2016,07,10,09,24,16.10
2016,07,10,09,25,16.10
2016,07,10,09,26,16.20
2016,07,10,09,27,16.30
2016,07,10,09,28,16.30
2016,07,10,09,29,16.40
2016,07,10,09,30,16.40
2016,07,10,09,31,16.30
2016,07,10,09,32,16.30
2016,07,10,09,33,16.30
2016,07,10,09,34,16.20
2016,07,10,09,35,16.20
2016,07,10,09,36,16.20
2016,07,10,09,37,16.20
2016,07,10,09,38,16.20
2016,07,10,09,39,16.20
2016,07,10,09,40,16.20
2016,07,10,09,41,16.20
2016,07,10,09,42,16.30
2016,07,10,09,43,16.30
2016,07,10,09,44,16.20
2016,07,10,09,45,16.20
2016,07,10,09,46,16.20
2016,07,10,09,47,16.30
2016,07,10,09,48,16.30
2016,07,10,09,49,16.30
2016,07,10,09,50,16.30
2016,07,10,09,51,16.30
2016,07,10,09,52,16.40
2016,07,10,09,53,16.40
2016,07,10,09,54,16.40
2016,07,10,09,55,16.50
2016,07,10,09,56,16.60
2016,07,10,09,57,16.60
2016,07,10,09,58,16.70
2016,07,10,09,59,16.80
2016,07,10,10,00,16.90
2016,07,10,10,01,17.00
2016,07,10,10,02,17.10
2016,07,10,10,03,17.10
2016,07,10,10,04,17.20
2016,07,10,10,05,17.20
2016,07,10,10,06,17.30
2016,07,10,10,07,17.40
2016,07,10,10,08,17.40
2016,07,10,10,09,17.40
2016,07,10,10,10,17.40
2016,07,10,10,11,17.40
2016,07,10,10,12,17.40
2016,07,10,10,13,17.30
2016,07,10,10,14,17.30
2016,07,10,10,15,17.30
2016,07,10,10,16,17.40
2016,07,10,10,17,17.50
2016,07,10,10,18,17.50
2016,07,10,10,19,17.60
2016,07,10,10,20,17.60
2016,07,10,10,21,17.70
2016,07,10,10,22,17.80
2016,07,10,10,23,18.00
2016,07,10,10,24,18.00
2016,07,10,10,25,18.10
2016,07,10,10,26,18.20
2016,07,10,10,27,18.30
2016,07,10,10,28,18.40
2016,07,10,10,29,18.50
2016,07,10,10,30,18.70
2016,07,10,10,31,18.80
2016,07,10,10,32,18.90
2016,07,10,10,33,18.90
2016,07,10,10,34,19.00
2016,07,10,10,35,19.00
2016,07,10,10,36,19.10
2016,07,10,10,37,19.10
2016,07,10,10,38,19.20
2016,07,10,10,39,19.20
2016,07,10,10,40,19.30
2016,07,10,10,41,19.40
2016,07,10,10,42,19.50
2016,07,10,10,43,19.60
2016,07,10,10,44,19.70
2016,07,10,10,45,19.70
2016,07,10,10,46,19.70
2016,07,10,10,47,19.70
2016,07,10,10,48,19.60
2016,07,10,10,49,19.50
2016,07,10,10,50,19.40
2016,07,10,10,51,19.40
2016,07,10,10,52,19.30
2016,07,10,10,53,19.20
2016,07,10,10,54,19.20
2016,07,10,10,55,19.20
2016,07,10,10,56,19.10
2016,07,10,10,57,19.00
2016,07,10,10,58,19.00
2016,07,10,10,59,19.00
2016,07,10,11,00,19.00
2016,07,10,11,01,19.00
2016,07,10,11,02,19.00
2016,07,10,11,03,19.10
2016,07,10,11,04,19.10
2016,07,10,11,05,19.20
2016,07,10,11,06,19.20
2016,07,10,11,07,19.30
2016,07,10,11,08,19.40
2016,07,10,11,09,19.40
2016,07,10,11,10,19.50
2016,07,10,11,11,19.50
2016,07,10,11,12,19.50
2016,07,10,11,13,19.60
2016,07,10,11,14,19.60
2016,07,10,11,15,19.60
2016,07,10,11,16,19.60
2016,07,10,11,17,19.70
2016,07,10,11,18,19.70
2016,07,10,11,19,19.80
2016,07,10,11,20,19.80
2016,07,10,11,21,19.90
2016,07,10,11,22,19.90
2016,07,10,11,23,20.00
2016,07,10,11,24,20.00
2016,07,10,11,25,20.10
2016,07,10,11,26,20.20
2016,07,10,11,27,20.30
2016,07,10,11,28,20.40
2016,07,10,11,29,20.40
2016,07,10,11,30,20.40
2016,07,10,11,31,20.50
2016,07,10,11,32,20.40
2016,07,10,11,33,20.50
2016,07,10,11,34,20.60
2016,07,10,11,35,20.60
2016,07,10,11,36,20.70
2016,07,10,11,37,20.80
2016,07,10,11,38,20.80
2016,07,10,11,39,20.90
2016,07,10,11,40,20.90
2016,07,10,11,41,20.80
2016,07,10,11,42,20.80
2016,07,10,11,43,20.90
2016,07,10,11,44,20.90
2016,07,10,11,45,20.90
2016,07,10,11,46,20.90
2016,07,10,11,47,20.90
2016,07,10,11,48,20.80
2016,07,10,11,49,20.80
2016,07,10,11,50,20.80
2016,07,10,11,51,20.80
2016,07,10,11,52,20.70
2016,07,10,11,53,20.70
2016,07,10,11,54,20.70
2016,07,10,11,55,20.60
2016,07,10,11,56,20.50
2016,07,10,11,57,20.30
2016,07,10,11,58,20.20
2016,07,10,11,59,20.10
2016,07,10,12,00,20.00
2016,07,10,12,01,20.00
2016,07,10,12,02,19.90
2016,07,10,12,03,19.80
2016,07,10,12,04,19.80
2016,07,10,12,05,19.70
2016,07,10,12,06,19.70
2016,07,10,12,07,19.60
2016,07,10,12,08,19.60
2016,07,10,12,09,19.70
2016,07,10,12,10,19.70
2016,07,10,12,11,19.70
2016,07,10,12,12,19.60
2016,07,10,12,13,19.60
2016,07,10,12,14,19.70
2016,07,10,12,15,19.70
2016,07,10,12,16,19.70
2016,07,10,12,17,19.80
2016,07,10,12,18,19.80
2016,07,10,12,19,19.80
2016,07,10,12,20,19.80
2016,07,10,12,21,19.80
2016,07,10,12,22,19.90
2016,07,10,12,23,20.00
2016,07,10,12,24,20.00
2016,07,10,12,25,20.10
2016,07,10,12,26,20.10
2016,07,10,12,27,20.10
2016,07,10,12,28,20.20
2016,07,10,12,29,20.30
2016,07,10,12,30,20.30
2016,07,10,12,31,20.40
2016,07,10,12,32,20.40
2016,07,10,12,33,20.40
2016,07,10,12,34,20.40
2016,07,10,12,35,20.40
2016,07,10,12,36,20.40
2016,07,10,12,37,20.40
2016,07,10,12,38,20.50
2016,07,10,12,39,20.50
2016,07,10,12,40,20.60
2016,07,10,12,41,20.70
2016,07,10,12,42,20.60
2016,07,10,12,43,20.60
2016,07,10,12,44,20.60
2016,07,10,12,45,20.60
2016,07,10,12,46,20.60
2016,07,10,12,47,20.50
2016,07,10,12,48,20.40
2016,07,10,12,49,20.40
2016,07,10,12,50,20.40
2016,07,10,12,51,20.40
2016,07,10,12,52,20.40
2016,07,10,12,53,20.40
2016,07,10,12,54,20.50
2016,07,10,12,55,20.50
2016,07,10,12,56,20.60
2016,07,10,12,57,20.60
2016,07,10,12,58,20.70
2016,07,10,12,59,20.80
2016,07,10,13,00,20.80
2016,07,10,13,01,20.80
2016,07,10,13,02,20.80
2016,07,10,13,03,20.90
2016,07,10,13,04,20.90
2016,07,10,13,05,20.90
2016,07,10,13,06,20.90
2016,07,10,13,07,20.90
2016,07,10,13,08,20.90
2016,07,10,13,09,20.90
2016,07,10,13,10,20.90
2016,07,10,13,11,20.90
2016,07,10,13,12,20.90
2016,07,10,13,13,20.90
2016,07,10,13,14,20.90
2016,07,10,13,15,20.90
2016,07,10,13,16,20.80
2016,07,10,13,17,20.80
2016,07,10,13,18,20.80
2016,07,10,13,19,20.80
2016,07,10,13,20,20.80
2016,07,10,13,21,20.80
2016,07,10,13,22,20.90
2016,07,10,13,23,20.90
2016,07,10,13,24,20.80
2016,07,10,13,25,20.80
2016,07,10,13,26,20.70
2016,07,10,13,27,20.60
2016,07,10,13,28,20.60
2016,07,10,13,29,20.50
2016,07,10,13,30,20.50
2016,07,10,13,31,20.50
2016,07,10,13,32,20.50
2016,07,10,13,33,20.50
2016,07,10,13,34,20.50
2016,07,10,13,35,20.40
2016,07,10,13,36,20.40
2016,07,10,13,37,20.40
2016,07,10,13,38,20.40
2016,07,10,13,39,20.30
2016,07,10,13,40,20.30
2016,07,10,13,41,20.40
2016,07,10,13,42,20.40
2016,07,10,13,43,20.40
2016,07,10,13,44,20.40
2016,07,10,13,45,20.40
2016,07,10,13,46,20.40
2016,07,10,13,47,20.40
2016,07,10,13,48,20.50
2016,07,10,13,49,20.50
2016,07,10,13,50,20.60
2016,07,10,13,51,20.60
2016,07,10,13,52,20.60
2016,07,10,13,53,20.70
2016,07,10,13,54,20.80
2016,07,10,13,55,20.80
2016,07,10,13,56,20.90
2016,07,10,13,57,20.90
2016,07,10,13,58,20.90
2016,07,10,13,59,21.00
2016,07,10,14,00,21.00
2016,07,10,14,01,21.10
2016,07,10,14,02,21.10
2016,07,10,14,03,21.10
2016,07,10,14,04,21.00
2016,07,10,14,05,21.00
2016,07,10,14,06,21.00
2016,07,10,14,07,20.90
2016,07,10,14,08,20.90
2016,07,10,14,09,20.90
2016,07,10,14,10,20.90
2016,07,10,14,11,20.90
2016,07,10,14,12,21.00
2016,07,10,14,13,21.10
2016,07,10,14,14,21.10
2016,07,10,14,15,21.10
2016,07,10,14,16,21.10
2016,07,10,14,17,21.10
2016,07,10,14,18,21.20
2016,07,10,14,19,21.20
2016,07,10,14,20,21.20
2016,07,10,14,21,21.20
2016,07,10,14,22,21.20
2016,07,10,14,23,21.20
2016,07,10,14,24,21.20
2016,07,10,14,25,21.20
2016,07,10,14,26,21.20
2016,07,10,14,27,21.30
2016,07,10,14,28,21.30
2016,07,10,14,29,21.40
2016,07,10,14,30,21.40
2016,07,10,14,31,21.50
2016,07,10,14,32,21.50
2016,07,10,14,33,21.40
2016,07,10,14,34,21.40
2016,07,10,14,35,21.30
2016,07,10,14,36,21.30
2016,07,10,14,37,21.30
2016,07,10,14,38,21.30
2016,07,10,14,39,21.30
2016,07,10,14,40,21.40
2016,07,10,14,41,21.40
2016,07,10,14,42,21.50
2016,07,10,14,43,21.50
2016,07,10,14,44,21.50
2016,07,10,14,45,21.60
2016,07,10,14,46,21.50
2016,07,10,14,47,21.50
2016,07,10,14,48,21.40
2016,07,10,14,49,21.30
2016,07,10,14,50,21.10
2016,07,10,14,51,21.00
2016,07,10,14,52,21.00
2016,07,10,14,53,21.00
2016,07,10,14,54,21.00
2016,07,10,14,55,21.00
2016,07,10,14,56,21.10
2016,07,10,14,57,21.20
2016,07,10,14,58,21.20
2016,07,10,14,59,21.30
2016,07,10,15,00,21.30
2016,07,10,15,01,21.40
2016,07,10,15,02,21.40
2016,07,10,15,03,21.40
2016,07,10,15,04,21.50
2016,07,10,15,05,21.50
2016,07,10,15,06,21.50
2016,07,10,15,07,21.60
2016,07,10,15,08,21.60
2016,07,10,15,09,21.70
2016,07,10,15,10,21.70
2016,07,10,15,11,21.80
2016,07,10,15,12,21.80
2016,07,10,15,13,21.80
2016,07,10,15,14,21.80
2016,07,10,15,15,21.80
2016,07,10,15,16,21.70
2016,07,10,15,17,21.70
2016,07,10,15,18,21.70
2016,07,10,15,19,21.70
2016,07,10,15,20,21.60
2016,07,10,15,21,21.60
2016,07,10,15,22,21.60
2016,07,10,15,23,21.60
2016,07,10,15,24,21.70
2016,07,10,15,25,21.80
2016,07,10,15,26,21.80
2016,07,10,15,27,21.80
2016,07,10,15,28,21.90
2016,07,10,15,29,22.00
2016,07,10,15,30,22.00
2016,07,10,15,31,21.90
2016,07,10,15,32,21.80
2016,07,10,15,33,21.80
2016,07,10,15,34,21.70
2016,07,10,15,35,21.60
2016,07,10,15,36,21.50
2016,07,10,15,37,21.40
2016,07,10,15,38,21.40
2016,07,10,15,39,21.30
2016,07,10,15,40,21.30
2016,07,10,15,41,21.30
2016,07,10,15,42,21.20
2016,07,10,15,43,21.20
2016,07,10,15,44,21.20
2016,07,10,15,45,21.10
2016,07,10,15,46,21.10
2016,07,10,15,47,21.20
2016,07,10,15,48,21.20
2016,07,10,15,49,21.20
2016,07,10,15,50,21.20
2016,07,10,15,51,21.20
2016,07,10,15,52,21.20
2016,07,10,15,53,21.30
2016,07,10,15,54,21.20
2016,07,10,15,55,21.20
2016,07,10,15,56,21.20
2016,07,10,15,57,21.20
2016,07,10,15,58,21.20
2016,07,10,15,59,21.30
2016,07,10,16,00,21.30
2016,07,10,16,01,21.30
2016,07,10,16,02,21.30
2016,07,10,16,03,21.20
2016,07,10,16,04,21.20
2016,07,10,16,05,21.20
2016,07,10,16,06,21.30
2016,07,10,16,07,21.30
2016,07,10,16,08,21.30
2016,07,10,16,09,21.30
2016,07,10,16,10,21.30
2016,07,10,16,11,21.30
2016,07,10,16,12,21.30
2016,07,10,16,13,21.40
2016,07,10,16,14,21.30
2016,07,10,16,15,21.30
2016,07,10,16,16,21.30
2016,07,10,16,17,21.20
2016,07,10,16,18,21.20
2016,07,10,16,19,21.20
2016,07,10,16,20,21.20
2016,07,10,16,21,21.10
2016,07,10,16,22,21.10
2016,07,10,16,23,21.10
2016,07,10,16,24,21.10
2016,07,10,16,25,21.10
2016,07,10,16,26,21.10
2016,07,10,16,27,21.10
2016,07,10,16,28,21.00
2016,07,10,16,29,21.00
2016,07,10,16,30,21.00
2016,07,10,16,31,20.90
2016,07,10,16,32,20.90
2016,07,10,16,33,20.90
2016,07,10,16,34,20.80
2016,07,10,16,35,20.80
2016,07,10,16,36,20.80
2016,07,10,16,37,20.80
2016,07,10,16,38,20.80
2016,07,10,16,39,20.80
2016,07,10,16,40,20.80
2016,07,10,16,41,20.90
2016,07,10,16,42,20.90
2016,07,10,16,43,21.00
2016,07,10,16,44,21.00
2016,07,10,16,45,21.10
2016,07,10,16,46,21.20
2016,07,10,16,47,21.20
2016,07,10,16,48,21.20
2016,07,10,16,49,21.20
2016,07,10,16,50,21.30
2016,07,10,16,51,21.20
2016,07,10,16,52,21.20
2016,07,10,16,53,21.20
2016,07,10,16,54,21.30
2016,07,10,16,55,21.30
2016,07,10,16,56,21.30
2016,07,10,16,57,21.30
2016,07,10,16,58,21.30
2016,07,10,16,59,21.30
2016,07,10,17,00,21.30
2016,07,10,17,01,21.30
2016,07,10,17,02,21.30
2016,07,10,17,03,21.30
2016,07,10,17,04,21.30
2016,07,10,17,05,21.30
2016,07,10,17,06,21.30
2016,07,10,17,07,21.40
2016,07,10,17,08,21.40
2016,07,10,17,09,21.30
2016,07,10,17,10,21.30
2016,07,10,17,11,21.30
2016,07,10,17,12,21.30
2016,07,10,17,13,21.30
2016,07,10,17,14,21.20
2016,07,10,17,15,21.20
2016,07,10,17,16,21.20
2016,07,10,17,17,21.20
2016,07,10,17,18,21.20
2016,07,10,17,19,21.10
2016,07,10,17,20,21.10